,,Stat6,,Stat2,,Stat8,,Stat9,,Stat10,,Wind1,,Wind1,
time,status,PA1M_AVG,status,PR1M_SUM,status,RH1M_AVG,status,SR1M_AVG,status,TA1M_AVG,status,W1dAve1m,status,W1sAve1m,
2007-07-15, 00:00:00,VALID,917.195,VALID,0,VALID,100,VALID,0.0169808,VALID,21.1681,VALID,53,VALID,0.0602679,
2007-07-15, 00:01:00,VALID,917.182,VALID,0,VALID,100,VALID,0,VALID,21.1556,VALID,53,VALID,0.105469,
2007-07-15, 00:02:00,VALID,917.187,VALID,0,VALID,100,VALID,0,VALID,21.1491,VALID,53,VALID,0,
2007-07-15, 00:03:00,VALID,917.191,VALID,0,VALID,100,VALID,0,VALID,21.1456,VALID,53,VALID,0,
2007-07-15, 00:04:00,VALID,917.157,VALID,0,VALID,100,VALID,0.0169808,VALID,21.1256,VALID,53,VALID,0,
2007-07-15, 00:05:00,VALID,917.136,VALID,0,VALID,100,VALID,0.0339617,VALID,21.1191,VALID,53,VALID,0,
2007-07-15, 00:06:00,VALID,917.123,VALID,0,VALID,100,VALID,0.0339617,VALID,21.1294,VALID,53,VALID,0,
2007-07-15, 00:07:00,VALID,917.11,VALID,0,VALID,100,VALID,0,VALID,21.1159,VALID,53,VALID,0,
2007-07-15, 00:08:00,VALID,917.087,VALID,0,VALID,100,VALID,0.0509425,VALID,21.1159,VALID,53,VALID,0,
2007-07-15, 00:09:00,VALID,917.073,VALID,0,VALID,100,VALID,0.0339617,VALID,21.1064,VALID,53,VALID,0,
2007-07-15, 00:10:00,VALID,917.061,VALID,0,VALID,100,VALID,0,VALID,21.1032,VALID,53,VALID,0.115412,
2007-07-15, 00:11:00,VALID,917.059,VALID,0,VALID,100,VALID,0,VALID,21.0999,VALID,53,VALID,0.169457,
2007-07-15, 00:12:00,VALID,917.044,VALID,0,VALID,100,VALID,0.0339617,VALID,21.1067,VALID,53,VALID,0.115699,
2007-07-15, 00:13:00,VALID,917.04,VALID,0,VALID,100,VALID,0,VALID,21.1034,VALID,53,VALID,0.0654762,
2007-07-15, 00:14:00,VALID,917.014,VALID,0,VALID,100,VALID,0.0169808,VALID,21.0799,VALID,53,VALID,0.351732,
2007-07-15, 00:15:00,VALID,917.009,VALID,0,VALID,100,VALID,0.0509425,VALID,21.0704,VALID,53,VALID,0.318403,
2007-07-15, 00:16:00,VALID,916.997,VALID,0,VALID,100,VALID,0.0169808,VALID,21.0512,VALID,53,VALID,0.101918,
2007-07-15, 00:17:00,VALID,917.003,VALID,0,VALID,100,VALID,0,VALID,21.0383,VALID,53,VALID,0,
2007-07-15, 00:18:00,VALID,917.003,VALID,0,VALID,100,VALID,0.0169808,VALID,21.039,VALID,53,VALID,0,
2007-07-15, 00:19:00,VALID,916.999,VALID,0,VALID,100,VALID,0.0339617,VALID,21.012,VALID,53,VALID,0,
2007-07-15, 00:20:00,VALID,917.011,VALID,0,VALID,100,VALID,0.0169808,VALID,21.0023,VALID,53,VALID,0,
2007-07-15, 00:21:00,VALID,917.019,VALID,0,VALID,100,VALID,0,VALID,20.9988,VALID,53,VALID,0,
2007-07-15, 00:22:00,VALID,917.021,VALID,0,VALID,100,VALID,0.0339617,VALID,21.0058,VALID,53,VALID,0.0424924,
2007-07-15, 00:23:00,VALID,917.009,VALID,0,VALID,100,VALID,-0.0169808,VALID,20.989,VALID,53,VALID,0.129586,
2007-07-15, 00:24:00,VALID,917.007,VALID,0,VALID,100,VALID,0.0169808,VALID,20.9925,VALID,53,VALID,0.197599,
2007-07-15, 00:25:01,VALID,916.997,VALID,0,VALID,100,VALID,0.0679233,VALID,20.9728,VALID,53,VALID,0.235372,
2007-07-15, 00:26:00,VALID,916.987,VALID,0,VALID,100,VALID,0.0339617,VALID,20.9668,VALID,53,VALID,0.237464,
2007-07-15, 00:27:00,VALID,916.967,VALID,0,VALID,100,VALID,0.0169808,VALID,20.9571,VALID,53,VALID,0.0592607,
2007-07-15, 00:28:00,VALID,916.958,VALID,0,VALID,100,VALID,0.0339617,VALID,20.9404,VALID,53,VALID,0,
2007-07-15, 00:29:00,VALID,916.946,VALID,0,VALID,100,VALID,0.0169808,VALID,20.9247,VALID,53,VALID,0,
2007-07-15, 00:30:00,VALID,916.963,VALID,0,VALID,100,VALID,-0.0679233,VALID,20.9095,VALID,53,VALID,0,
2007-07-15, 00:31:00,VALID,916.977,VALID,0,VALID,100,VALID,-0.101885,VALID,20.9,VALID,53,VALID,0,
2007-07-15, 00:32:01,VALID,916.984,VALID,0,VALID,100,VALID,-0.118866,VALID,20.8905,VALID,53,VALID,0,
2007-07-15, 00:33:00,VALID,916.991,VALID,0,VALID,100,VALID,-0.0679233,VALID,20.8743,VALID,53,VALID,0,
2007-07-15, 00:34:00,VALID,917.005,VALID,0,VALID,100,VALID,-0.0849042,VALID,20.8513,VALID,53,VALID,0.208594,
2007-07-15, 00:35:00,VALID,917.009,VALID,0,VALID,100,VALID,-0.0849042,VALID,20.8219,VALID,53,VALID,0.272928,
2007-07-15, 00:36:00,VALID,916.995,VALID,0,VALID,100,VALID,-0.0509425,VALID,20.8026,VALID,53,VALID,0.110119,
2007-07-15, 00:37:01,VALID,916.989,VALID,0,VALID,100,VALID,-0.0679233,VALID,20.7864,VALID,53,VALID,0,
2007-07-15, 00:38:00,VALID,916.974,VALID,0,VALID,100,VALID,-0.0849042,VALID,20.7799,VALID,53,VALID,0,
2007-07-15, 00:39:00,VALID,916.971,VALID,0,VALID,100,VALID,-0.0509425,VALID,20.7667,VALID,53,VALID,0.0813954,
2007-07-15, 00:40:01,VALID,916.946,VALID,0,VALID,100,VALID,-0.0849042,VALID,20.7572,VALID,53,VALID,0.131882,
2007-07-15, 00:41:00,VALID,916.938,VALID,0,VALID,100,VALID,-0.101885,VALID,20.7377,VALID,53,VALID,0,
2007-07-15, 00:42:00,VALID,916.931,VALID,0,VALID,100,VALID,-0.101885,VALID,20.7377,VALID,53,VALID,0,
2007-07-15, 00:43:01,VALID,916.949,VALID,0,VALID,100,VALID,-0.0679233,VALID,20.731,VALID,53,VALID,0,
2007-07-15, 00:44:00,VALID,916.935,VALID,0,VALID,100,VALID,-0.0509425,VALID,20.721,VALID,53,VALID,0,
2007-07-15, 00:45:01,VALID,916.942,VALID,0,VALID,100,VALID,-0.0169808,VALID,20.6972,VALID,53,VALID,0,
2007-07-15, 00:46:00,VALID,916.933,VALID,0,VALID,100,VALID,0.0509425,VALID,20.6845,VALID,53,VALID,0.273242,
2007-07-15, 00:47:01,VALID,916.924,VALID,0,VALID,100,VALID,0.0169808,VALID,20.6842,VALID,53,VALID,0.345703,
2007-07-15, 00:48:00,VALID,916.904,VALID,0,VALID,100,VALID,0.0169808,VALID,20.6712,VALID,64,VALID,0.407848,
2007-07-15, 00:49:00,VALID,916.89,VALID,0,VALID,100,VALID,0,VALID,20.6777,VALID,65,VALID,0.328299,
2007-07-15, 00:50:00,VALID,916.875,VALID,0,VALID,100,VALID,0.0169808,VALID,20.6775,VALID,65,VALID,0.397507,
2007-07-15, 00:51:00,VALID,916.865,VALID,0,VALID,100,VALID,0.0509425,VALID,20.661,VALID,65,VALID,0.295785,
2007-07-15, 00:52:01,VALID,916.864,VALID,0,VALID,100,VALID,0.0169808,VALID,20.6583,VALID,65,VALID,0.189174,
2007-07-15, 00:53:00,VALID,916.855,VALID,0,VALID,100,VALID,0.0339617,VALID,20.6483,VALID,65,VALID,0.150195,
2007-07-15, 00:54:01,VALID,916.861,VALID,0,VALID,100,VALID,0.0339617,VALID,20.6323,VALID,65,VALID,0.0464939,
2007-07-15, 00:55:01,VALID,916.862,VALID,0,VALID,100,VALID,0,VALID,20.6158,VALID,65,VALID,0.0535442,
2007-07-15, 00:56:00,VALID,916.872,VALID,0,VALID,100,VALID,0,VALID,20.6001,VALID,65,VALID,0.010617,
2007-07-15, 00:57:00,VALID,916.873,VALID,0,VALID,100,VALID,0,VALID,20.5869,VALID,65,VALID,0.215298,
2007-07-15, 00:58:01,VALID,916.88,VALID,0,VALID,100,VALID,0.0169808,VALID,20.5804,VALID,65,VALID,0.184261,
2007-07-15, 00:59:01,VALID,916.884,VALID,0,VALID,100,VALID,0,VALID,20.5736,VALID,65,VALID,0.0482088,
2007-07-15, 01:00:01,VALID,916.889,VALID,0,VALID,100,VALID,-0.0339617,VALID,20.5809,VALID,65,VALID,0.212426,
2007-07-15, 01:01:00,VALID,916.891,VALID,0,VALID,100,VALID,0,VALID,20.5706,VALID,65,VALID,0.248666,
2007-07-15, 01:02:00,VALID,916.893,VALID,0,VALID,100,VALID,0,VALID,20.5479,VALID,65,VALID,0.091654,
2007-07-15, 01:03:00,VALID,916.901,VALID,0,VALID,100,VALID,0,VALID,20.5022,VALID,65,VALID,0.000558036,
2007-07-15, 01:04:01,VALID,916.901,VALID,0,VALID,100,VALID,0,VALID,20.4798,VALID,65,VALID,0.000664894,
2007-07-15, 01:05:00,VALID,916.912,VALID,0,VALID,100,VALID,0,VALID,20.4536,VALID,65,VALID,0.0012429,
2007-07-15, 01:06:00,VALID,916.919,VALID,0,VALID,100,VALID,0.0339617,VALID,20.4344,VALID,65,VALID,0,
2007-07-15, 01:07:01,VALID,916.925,VALID,0,VALID,100,VALID,0,VALID,20.4019,VALID,65,VALID,0,
2007-07-15, 01:08:01,VALID,916.932,VALID,0,VALID,100,VALID,0,VALID,20.3822,VALID,65,VALID,0,
2007-07-15, 01:09:00,VALID,916.925,VALID,0,VALID,100,VALID,0.0849042,VALID,20.3724,VALID,65,VALID,0,
2007-07-15, 01:10:00,VALID,916.923,VALID,0,VALID,100,VALID,0,VALID,20.3722,VALID,65,VALID,0,
2007-07-15, 01:11:00,VALID,916.931,VALID,0,VALID,100,VALID,-0.0169808,VALID,20.3792,VALID,65,VALID,0,
2007-07-15, 01:12:00,VALID,916.936,VALID,0,VALID,100,VALID,0,VALID,20.3822,VALID,65,VALID,0,
2007-07-15, 01:13:01,VALID,916.94,VALID,0,VALID,100,VALID,0,VALID,20.3697,VALID,65,VALID,0,
2007-07-15, 01:14:01,VALID,916.936,VALID,0,VALID,100,VALID,0,VALID,20.3532,VALID,65,VALID,0.0241997,
2007-07-15, 01:15:01,VALID,916.934,VALID,0,VALID,100,VALID,0,VALID,20.3435,VALID,65,VALID,0.11059,
2007-07-15, 01:16:01,VALID,916.949,VALID,0,VALID,100,VALID,0.0679233,VALID,20.3592,VALID,65,VALID,0.056686,
2007-07-15, 01:17:01,VALID,916.943,VALID,0,VALID,100,VALID,-0.0169808,VALID,20.3794,VALID,65,VALID,0.239702,
2007-07-15, 01:18:01,VALID,916.935,VALID,0,VALID,100,VALID,0.0339617,VALID,20.3819,VALID,65,VALID,0.134527,
2007-07-15, 01:19:01,VALID,916.934,VALID,0,VALID,100,VALID,0,VALID,20.3922,VALID,65,VALID,0.211338,
2007-07-15, 01:20:01,VALID,916.928,VALID,0,VALID,100,VALID,0.0509425,VALID,20.3984,VALID,65,VALID,0.250363,
2007-07-15, 01:21:01,VALID,916.913,VALID,0,VALID,100,VALID,0,VALID,20.3984,VALID,65,VALID,0.00203804,
2007-07-15, 01:22:01,VALID,916.904,VALID,0,VALID,100,VALID,0.0169808,VALID,20.4081,VALID,65,VALID,0,
2007-07-15, 01:23:01,VALID,916.89,VALID,0,VALID,100,VALID,0.0679233,VALID,20.4114,VALID,65,VALID,0,
2007-07-15, 01:24:01,VALID,916.877,VALID,0,VALID,100,VALID,0.0339617,VALID,20.4149,VALID,65,VALID,0,
2007-07-15, 01:25:01,VALID,916.887,VALID,0,VALID,100,VALID,0,VALID,20.4111,VALID,65,VALID,0,
2007-07-15, 01:26:00,VALID,916.881,VALID,0,VALID,100,VALID,0.0169808,VALID,20.4244,VALID,65,VALID,0,
2007-07-15, 01:27:00,VALID,916.864,VALID,0,VALID,100,VALID,0.0339617,VALID,20.4279,VALID,65,VALID,0,
2007-07-15, 01:28:00,VALID,916.863,VALID,0,VALID,100,VALID,0.0339617,VALID,20.4273,VALID,65,VALID,0,
2007-07-15, 01:29:00,VALID,916.849,VALID,0,VALID,100,VALID,0.0169808,VALID,20.4376,VALID,65,VALID,0,
2007-07-15, 01:30:00,VALID,916.842,VALID,0,VALID,100,VALID,-0.0849042,VALID,20.4451,VALID,65,VALID,0,
2007-07-15, 01:31:00,VALID,916.825,VALID,0,VALID,100,VALID,-0.0339617,VALID,20.4781,VALID,65,VALID,0,
2007-07-15, 01:32:00,VALID,916.807,VALID,0,VALID,100,VALID,-0.0849042,VALID,20.4878,VALID,65,VALID,0,
2007-07-15, 01:33:00,VALID,916.792,VALID,0,VALID,100,VALID,-0.0679233,VALID,20.4976,VALID,65,VALID,0,
2007-07-15, 01:34:00,VALID,916.77,VALID,0,VALID,100,VALID,-0.0339617,VALID,20.4841,VALID,65,VALID,0,
2007-07-15, 01:35:00,VALID,916.755,VALID,0,VALID,100,VALID,-0.0509425,VALID,20.4808,VALID,65,VALID,0,
2007-07-15, 01:36:00,VALID,916.752,VALID,0,VALID,100,VALID,-0.0509425,VALID,20.4516,VALID,65,VALID,0,
2007-07-15, 01:37:00,VALID,916.74,VALID,0,VALID,100,VALID,-0.0849042,VALID,20.4251,VALID,65,VALID,0,
2007-07-15, 01:38:00,VALID,916.723,VALID,0,VALID,100,VALID,-0.0849042,VALID,20.4127,VALID,65,VALID,0,
2007-07-15, 01:39:00,VALID,916.715,VALID,0,VALID,100,VALID,-0.0849042,VALID,20.4129,VALID,65,VALID,0,
2007-07-15, 01:40:00,VALID,916.698,VALID,0,VALID,100,VALID,-0.118866,VALID,20.4035,VALID,65,VALID,0,
2007-07-15, 01:41:00,VALID,916.679,VALID,0,VALID,100,VALID,-0.0849042,VALID,20.407,VALID,65,VALID,0,
2007-07-15, 01:42:00,VALID,916.662,VALID,0,VALID,100,VALID,-0.101885,VALID,20.4167,VALID,65,VALID,0,
2007-07-15, 01:43:00,VALID,916.65,VALID,0,VALID,100,VALID,-0.0849042,VALID,20.4094,VALID,65,VALID,0,
2007-07-15, 01:44:00,VALID,916.622,VALID,0,VALID,100,VALID,-0.0679233,VALID,20.4389,VALID,65,VALID,0,
2007-07-15, 01:45:00,VALID,916.619,VALID,0,VALID,100,VALID,-0.0849042,VALID,20.4686,VALID,65,VALID,0,
2007-07-15, 01:46:00,VALID,916.617,VALID,0,VALID,100,VALID,-0.0679233,VALID,20.4708,VALID,65,VALID,0,
2007-07-15, 01:47:00,VALID,916.609,VALID,0,VALID,100,VALID,-0.0679233,VALID,20.4578,VALID,65,VALID,0,
2007-07-15, 01:48:00,VALID,916.6,VALID,0,VALID,100,VALID,-0.0509425,VALID,20.3964,VALID,65,VALID,0,
2007-07-15, 01:49:00,VALID,916.59,VALID,0,VALID,100,VALID,0,VALID,20.364,VALID,65,VALID,0,
2007-07-15, 01:50:00,VALID,916.564,VALID,0,VALID,100,VALID,-0.0679233,VALID,20.3578,VALID,65,VALID,0,
2007-07-15, 01:51:00,VALID,916.54,VALID,0,VALID,100,VALID,-0.0679233,VALID,20.3678,VALID,65,VALID,0,
2007-07-15, 01:52:00,VALID,916.508,VALID,0,VALID,100,VALID,-0.0509425,VALID,20.3705,VALID,65,VALID,0,
2007-07-15, 01:53:00,VALID,916.481,VALID,0,VALID,100,VALID,-0.0849042,VALID,20.3802,VALID,65,VALID,0,
2007-07-15, 01:54:00,VALID,916.451,VALID,0,VALID,100,VALID,-0.0679233,VALID,20.4129,VALID,65,VALID,0,
2007-07-15, 01:55:00,VALID,916.43,VALID,0,VALID,100,VALID,-0.0849042,VALID,20.4286,VALID,65,VALID,0,
2007-07-15, 01:56:00,VALID,916.426,VALID,0,VALID,100,VALID,-0.0679233,VALID,20.4416,VALID,65,VALID,0,
2007-07-15, 01:57:00,VALID,916.411,VALID,0,VALID,100,VALID,-0.0849042,VALID,20.4649,VALID,65,VALID,0,
2007-07-15, 01:58:00,VALID,916.401,VALID,0,VALID,100,VALID,-0.0849042,VALID,20.4681,VALID,65,VALID,0,
2007-07-15, 01:59:00,VALID,916.383,VALID,0,VALID,100,VALID,-0.0509425,VALID,20.4578,VALID,65,VALID,0,
2007-07-15, 02:00:00,VALID,916.375,VALID,0,VALID,100,VALID,0.0169808,VALID,20.4338,VALID,65,VALID,0,
2007-07-15, 02:01:00,VALID,916.36,VALID,0,VALID,100,VALID,0.0169808,VALID,20.3889,VALID,65,VALID,0,
2007-07-15, 02:02:00,VALID,916.327,VALID,0,VALID,100,VALID,0.0509425,VALID,20.346,VALID,65,VALID,0.335938,
2007-07-15, 02:03:00,VALID,916.323,VALID,0,VALID,100,VALID,0.0509425,VALID,20.3332,VALID,65,VALID,0.423692,
2007-07-15, 02:04:00,VALID,916.303,VALID,0,VALID,100,VALID,0.0509425,VALID,20.3624,VALID,65,VALID,0.540015,
2007-07-15, 02:05:00,VALID,916.295,VALID,0,VALID,100,VALID,0.0339617,VALID,20.3727,VALID,65,VALID,0.62593,
2007-07-15, 02:06:00,VALID,916.296,VALID,0,VALID,100,VALID,0,VALID,20.3595,VALID,65,VALID,0.609756,
2007-07-15, 02:07:00,VALID,916.306,VALID,0,VALID,100,VALID,0.0169808,VALID,20.353,VALID,68,VALID,0.661133,
2007-07-15, 02:08:00,VALID,916.301,VALID,0,VALID,100,VALID,0.0339617,VALID,20.3165,VALID,71,VALID,0.645275,
2007-07-15, 02:09:00,VALID,916.302,VALID,0,VALID,100,VALID,0,VALID,20.3105,VALID,71,VALID,0.577415,
2007-07-15, 02:10:00,VALID,916.283,VALID,0,VALID,100,VALID,0.0339617,VALID,20.2913,VALID,71,VALID,0.579649,
2007-07-15, 02:11:00,VALID,916.265,VALID,0,VALID,100,VALID,0.0509425,VALID,20.2484,VALID,71,VALID,0.577035,
2007-07-15, 02:12:00,VALID,916.253,VALID,0,VALID,100,VALID,0.0679233,VALID,20.2289,VALID,70,VALID,0.276989,
2007-07-15, 02:13:00,VALID,916.236,VALID,0,VALID,100,VALID,0.0509425,VALID,20.1805,VALID,71,VALID,0.536644,
2007-07-15, 02:14:00,VALID,916.223,VALID,0,VALID,100,VALID,0,VALID,20.1361,VALID,70,VALID,0.50558,
2007-07-15, 02:15:00,VALID,916.221,VALID,0,VALID,100,VALID,-0.0849042,VALID,20.1019,VALID,70,VALID,0.567014,
2007-07-15, 02:16:00,VALID,916.2,VALID,0,VALID,100,VALID,-0.0849042,VALID,20.0662,VALID,73,VALID,0.699314,
2007-07-15, 02:17:00,VALID,916.19,VALID,0,VALID,100,VALID,-0.101885,VALID,20.0752,VALID,86,VALID,0.750363,
2007-07-15, 02:18:00,VALID,916.17,VALID,0,VALID,100,VALID,-0.101885,VALID,20.1211,VALID,110,VALID,0.666921,
2007-07-15, 02:19:00,VALID,916.162,VALID,0,VALID,100,VALID,-0.101885,VALID,20.1336,VALID,116,VALID,0.615412,
2007-07-15, 02:20:00,VALID,916.151,VALID,0,VALID,100,VALID,-0.0679233,VALID,20.1363,VALID,116,VALID,0.543713,
2007-07-15, 02:21:00,VALID,916.147,VALID,0,VALID,100,VALID,-0.0679233,VALID,20.1501,VALID,116,VALID,0.478906,
2007-07-15, 02:22:00,VALID,916.134,VALID,0,VALID,100,VALID,-0.101885,VALID,20.1596,VALID,116,VALID,0.357195,
2007-07-15, 02:23:00,VALID,916.11,VALID,0,VALID,100,VALID,-0.118866,VALID,20.1628,VALID,116,VALID,0.464753,
2007-07-15, 02:24:00,VALID,916.116,VALID,0,VALID,100,VALID,-0.0849042,VALID,20.1825,VALID,116,VALID,0.357922,
2007-07-15, 02:25:00,VALID,916.1,VALID,0,VALID,100,VALID,-0.101885,VALID,20.1952,VALID,116,VALID,0.116443,
2007-07-15, 02:26:00,VALID,916.076,VALID,0,VALID,100,VALID,-0.0849042,VALID,20.2085,VALID,116,VALID,0.367188,
2007-07-15, 02:27:00,VALID,916.054,VALID,0,VALID,100,VALID,-0.0679233,VALID,20.211,VALID,116,VALID,0.273047,
2007-07-15, 02:28:00,VALID,916.044,VALID,0,VALID,100,VALID,-0.0849042,VALID,20.2215,VALID,116,VALID,0.143111,
2007-07-15, 02:29:00,VALID,916.019,VALID,0,VALID,100,VALID,-0.0509425,VALID,20.215,VALID,116,VALID,0.415625,
2007-07-15, 02:30:00,VALID,916.025,VALID,0,VALID,100,VALID,0,VALID,20.2274,VALID,116,VALID,0.326853,
2007-07-15, 02:31:00,VALID,916.023,VALID,0,VALID,100,VALID,0.0169808,VALID,20.221,VALID,116,VALID,0.265039,
2007-07-15, 02:32:00,VALID,916.025,VALID,0,VALID,100,VALID,0.0169808,VALID,20.2169,VALID,116,VALID,0.332403,
2007-07-15, 02:33:00,VALID,916.037,VALID,0,VALID,100,VALID,0,VALID,20.2107,VALID,116,VALID,0.0595238,
2007-07-15, 02:34:00,VALID,916.038,VALID,0,VALID,100,VALID,0,VALID,20.2145,VALID,116,VALID,0,
2007-07-15, 02:35:00,VALID,916.029,VALID,0,VALID,100,VALID,-0.0169808,VALID,20.2142,VALID,116,VALID,0,
2007-07-15, 02:36:00,VALID,916.022,VALID,0,VALID,100,VALID,-0.0339617,VALID,20.2075,VALID,116,VALID,0,
2007-07-15, 02:37:00,VALID,915.999,VALID,0,VALID,100,VALID,0,VALID,20.2272,VALID,116,VALID,0,
2007-07-15, 02:38:00,VALID,915.974,VALID,0,VALID,100,VALID,-0.0169808,VALID,20.2344,VALID,116,VALID,0,
2007-07-15, 02:39:00,VALID,915.942,VALID,0,VALID,100,VALID,0.0169808,VALID,20.2207,VALID,116,VALID,0,
2007-07-15, 02:40:00,VALID,915.915,VALID,0,VALID,100,VALID,0,VALID,20.2012,VALID,116,VALID,0,
2007-07-15, 02:41:00,VALID,915.899,VALID,0,VALID,100,VALID,0,VALID,20.1818,VALID,116,VALID,0,
2007-07-15, 02:42:00,VALID,915.88,VALID,0,VALID,100,VALID,0,VALID,20.1653,VALID,116,VALID,0,
2007-07-15, 02:43:00,VALID,915.866,VALID,0,VALID,100,VALID,0,VALID,20.1526,VALID,116,VALID,0,
2007-07-15, 02:44:00,VALID,915.857,VALID,0,VALID,100,VALID,-0.0169808,VALID,20.1271,VALID,116,VALID,0,
2007-07-15, 02:45:00,VALID,915.83,VALID,0,VALID,100,VALID,-0.101885,VALID,20.1059,VALID,116,VALID,0.510352,
2007-07-15, 02:46:00,VALID,915.807,VALID,0,VALID,100,VALID,-0.0849042,VALID,20.0632,VALID,111,VALID,0.708757,
2007-07-15, 02:47:00,VALID,915.787,VALID,0,VALID,100,VALID,-0.101885,VALID,20.06,VALID,100,VALID,0.702553,
2007-07-15, 02:48:00,VALID,915.778,VALID,0,VALID,100,VALID,-0.118866,VALID,20.0667,VALID,100,VALID,0.676153,
2007-07-15, 02:49:00,VALID,915.757,VALID,0,VALID,100,VALID,-0.118866,VALID,20.0562,VALID,100,VALID,0.63529,
2007-07-15, 02:50:00,VALID,915.741,VALID,0,VALID,100,VALID,-0.101885,VALID,20.0794,VALID,100,VALID,0.56436,
2007-07-15, 02:51:00,VALID,915.724,VALID,0,VALID,100,VALID,-0.101885,VALID,20.07,VALID,100,VALID,0.481771,
2007-07-15, 02:52:00,VALID,915.721,VALID,0,VALID,100,VALID,-0.101885,VALID,20.0335,VALID,100,VALID,0.475419,
2007-07-15, 02:53:00,VALID,915.712,VALID,0,VALID,100,VALID,-0.101885,VALID,20.0111,VALID,105,VALID,0.487891,
2007-07-15, 02:54:00,VALID,915.727,VALID,0,VALID,100,VALID,-0.118866,VALID,19.9921,VALID,112,VALID,0.442361,
2007-07-15, 02:55:00,VALID,915.725,VALID,0,VALID,100,VALID,-0.101885,VALID,19.9659,VALID,129,VALID,0.486919,
2007-07-15, 02:56:00,VALID,915.726,VALID,0,VALID,100,VALID,-0.118866,VALID,19.9274,VALID,129,VALID,0.5919,
2007-07-15, 02:57:00,VALID,915.719,VALID,0,VALID,100,VALID,-0.118866,VALID,19.9072,VALID,129,VALID,0.724848,
2007-07-15, 02:58:00,VALID,915.732,VALID,0,VALID,100,VALID,-0.101885,VALID,19.8718,VALID,129,VALID,0.634811,
2007-07-15, 02:59:00,VALID,915.724,VALID,0,VALID,100,VALID,-0.0849042,VALID,19.8745,VALID,129,VALID,0.717297,
2007-07-15, 03:00:00,VALID,915.737,VALID,0,VALID,100,VALID,0,VALID,19.89,VALID,130,VALID,0.833079,
2007-07-15, 03:01:00,VALID,915.717,VALID,0,VALID,100,VALID,-0.0339617,VALID,19.9287,VALID,130,VALID,0.678597,
2007-07-15, 03:02:00,VALID,915.738,VALID,0,VALID,100,VALID,0,VALID,19.9249,VALID,130,VALID,0.56875,
2007-07-15, 03:03:00,VALID,915.731,VALID,0,VALID,100,VALID,0,VALID,19.9284,VALID,130,VALID,0.394804,
2007-07-15, 03:04:00,VALID,915.726,VALID,0,VALID,100,VALID,0,VALID,19.9249,VALID,130,VALID,0.337028,
2007-07-15, 03:05:00,VALID,915.724,VALID,0,VALID,100,VALID,-0.0169808,VALID,19.8967,VALID,130,VALID,0.00381541,
2007-07-15, 03:06:00,VALID,915.719,VALID,0,VALID,100,VALID,0,VALID,19.8114,VALID,130,VALID,0,
2007-07-15, 03:07:00,VALID,915.728,VALID,0,VALID,100,VALID,0,VALID,19.7929,VALID,130,VALID,0,
2007-07-15, 03:08:00,VALID,915.735,VALID,0,VALID,100,VALID,0,VALID,19.7724,VALID,130,VALID,0,
2007-07-15, 03:09:00,VALID,915.732,VALID,0,VALID,100,VALID,0,VALID,19.7597,VALID,130,VALID,0,
2007-07-15, 03:10:00,VALID,915.75,VALID,0,VALID,100,VALID,0,VALID,19.7402,VALID,130,VALID,0,
2007-07-15, 03:11:00,VALID,915.767,VALID,0,VALID,100,VALID,0,VALID,19.7143,VALID,130,VALID,0,
2007-07-15, 03:12:00,VALID,915.779,VALID,0,VALID,100,VALID,-0.0169808,VALID,19.5783,VALID,130,VALID,0,
2007-07-15, 03:13:00,VALID,915.79,VALID,0,VALID,100,VALID,0,VALID,19.4513,VALID,130,VALID,0,
2007-07-15, 03:14:00,VALID,915.782,VALID,0,VALID,100,VALID,0.0339617,VALID,19.4123,VALID,130,VALID,0,
2007-07-15, 03:15:00,VALID,915.778,VALID,0,VALID,100,VALID,0,VALID,19.439,VALID,130,VALID,0,
2007-07-15, 03:16:00,VALID,915.765,VALID,0,VALID,100,VALID,0,VALID,19.4253,VALID,130,VALID,0,
2007-07-15, 03:17:00,VALID,915.764,VALID,0,VALID,100,VALID,0.0169808,VALID,19.4218,VALID,130,VALID,0,
2007-07-15, 03:18:00,VALID,915.753,VALID,0,VALID,100,VALID,0,VALID,19.4161,VALID,130,VALID,0,
2007-07-15, 03:19:00,VALID,915.755,VALID,0,VALID,100,VALID,-0.0339617,VALID,19.4026,VALID,130,VALID,0,
2007-07-15, 03:20:00,VALID,915.768,VALID,0,VALID,100,VALID,0,VALID,19.4058,VALID,130,VALID,0,
2007-07-15, 03:21:00,VALID,915.783,VALID,0,VALID,100,VALID,0,VALID,19.3996,VALID,130,VALID,0,
2007-07-15, 03:22:00,VALID,915.791,VALID,0,VALID,100,VALID,-0.0169808,VALID,19.4028,VALID,130,VALID,0,
2007-07-15, 03:23:00,VALID,915.819,VALID,0,VALID,100,VALID,-0.0339617,VALID,19.4128,VALID,130,VALID,0,
2007-07-15, 03:24:00,VALID,915.817,VALID,0,VALID,100,VALID,0,VALID,19.4288,VALID,130,VALID,0.00520833,
2007-07-15, 03:25:00,VALID,915.826,VALID,0,VALID,100,VALID,-0.0169808,VALID,19.4612,VALID,130,VALID,0.131722,
2007-07-15, 03:26:00,VALID,915.816,VALID,0,VALID,100,VALID,0,VALID,19.4902,VALID,130,VALID,0.000744048,
2007-07-15, 03:27:00,VALID,915.825,VALID,0,VALID,100,VALID,0.0169808,VALID,19.4999,VALID,130,VALID,0.000520833,
2007-07-15, 03:28:00,VALID,915.796,VALID,0,VALID,100,VALID,0.0169808,VALID,19.4937,VALID,130,VALID,0,
2007-07-15, 03:29:00,VALID,915.81,VALID,0,VALID,100,VALID,0,VALID,19.4904,VALID,130,VALID,0,
2007-07-15, 03:30:00,VALID,915.794,VALID,0,VALID,100,VALID,0,VALID,19.4869,VALID,130,VALID,0,
2007-07-15, 03:31:00,VALID,915.809,VALID,0,VALID,100,VALID,0,VALID,19.5096,VALID,130,VALID,0,
2007-07-15, 03:32:00,VALID,915.821,VALID,0,VALID,100,VALID,-0.0169808,VALID,19.5421,VALID,130,VALID,0,
2007-07-15, 03:33:00,VALID,915.828,VALID,0,VALID,100,VALID,0,VALID,19.5521,VALID,130,VALID,0,
2007-07-15, 03:34:00,VALID,915.829,VALID,0,VALID,100,VALID,-0.0169808,VALID,19.5388,VALID,130,VALID,0,
2007-07-15, 03:35:00,VALID,915.842,VALID,0,VALID,100,VALID,0,VALID,19.5291,VALID,130,VALID,0,
2007-07-15, 03:36:00,VALID,915.852,VALID,0,VALID,100,VALID,0.0169808,VALID,19.5236,VALID,130,VALID,0,
2007-07-15, 03:37:00,VALID,915.857,VALID,0,VALID,100,VALID,0,VALID,19.5269,VALID,130,VALID,0,
2007-07-15, 03:38:00,VALID,915.867,VALID,0,VALID,100,VALID,0,VALID,19.5234,VALID,130,VALID,0.15298,
2007-07-15, 03:39:00,VALID,915.876,VALID,0,VALID,100,VALID,0,VALID,19.5421,VALID,130,VALID,0,
2007-07-15, 03:40:00,VALID,915.872,VALID,0,VALID,100,VALID,0,VALID,19.565,VALID,130,VALID,0,
2007-07-15, 03:41:00,VALID,915.876,VALID,0,VALID,100,VALID,-0.0339617,VALID,19.5745,VALID,130,VALID,0,
2007-07-15, 03:42:00,VALID,915.868,VALID,0,VALID,100,VALID,-0.0169808,VALID,19.5843,VALID,130,VALID,0,
2007-07-15, 03:43:00,VALID,915.856,VALID,0,VALID,100,VALID,0,VALID,19.614,VALID,130,VALID,0,
2007-07-15, 03:44:00,VALID,915.866,VALID,0,VALID,100,VALID,-0.0169808,VALID,19.6107,VALID,130,VALID,0,
2007-07-15, 03:45:00,VALID,915.85,VALID,0,VALID,100,VALID,-0.101885,VALID,19.6189,VALID,130,VALID,0,
2007-07-15, 03:46:00,VALID,915.854,VALID,0,VALID,100,VALID,-0.118866,VALID,19.6384,VALID,130,VALID,0.00722656,
2007-07-15, 03:47:00,VALID,915.853,VALID,0,VALID,100,VALID,-0.101885,VALID,19.6571,VALID,130,VALID,0.214648,
2007-07-15, 03:48:00,VALID,915.85,VALID,0,VALID,100,VALID,-0.101885,VALID,19.6898,VALID,128,VALID,0.306362,
2007-07-15, 03:49:00,VALID,915.849,VALID,0,VALID,100,VALID,-0.118866,VALID,19.7058,VALID,122,VALID,0.386039,
2007-07-15, 03:50:00,VALID,915.853,VALID,0,VALID,100,VALID,-0.0679233,VALID,19.7125,VALID,110,VALID,0.58085,
2007-07-15, 03:51:00,VALID,915.837,VALID,0,VALID,100,VALID,-0.101885,VALID,19.7153,VALID,103,VALID,0.693598,